This is the latest recevied weather packets stored in our database for station/object N2OCK. If no packets are shown the sender has not sent any weather packets the latest 10 day(s).
| Time | Temp. | Humidity | Pressure | Rain* | Wind** | Luminosity | Snow |
|---|---|---|---|---|---|---|---|
| 1778022729 | 17.78° C | 69% | 1009.9 hPa | 0 mm | - | 33 W/m² | - |
| 1778022427 | 18.33° C | 69% | 1009.6 hPa | 0 mm | - | 34 W/m² | - |
| 1778022123 | 18.33° C | 68% | 1009.7 hPa | 0 mm | - | 44 W/m² | - |
| 1778021819 | 18.33° C | 67% | 1009.7 hPa | 0 mm | - | 47 W/m² | - |
| 1778021516 | 18.33° C | 67% | 1009.8 hPa | 0 mm | - | 60 W/m² | - |
| 1778021211 | 18.33° C | 67% | 1009.9 hPa | 0 mm | - | 71 W/m² | - |
| 1778020910 | 18.33° C | 68% | 1009.8 hPa | 0 mm | - | 75 W/m² | - |
| 1778020607 | 18.33° C | 68% | 1009.6 hPa | 0 mm | - | 81 W/m² | - |
| 1778020303 | 18.89° C | 67% | 1009.7 hPa | 0 mm | - | 103 W/m² | - |
| 1778019998 | 18.89° C | 66% | 1009.8 hPa | 0 mm | - | 118 W/m² | - |
| 1778019696 | 18.89° C | 66% | 1009.8 hPa | 0 mm | - | 124 W/m² | - |
| 1778019392 | 18.89° C | 66% | 1009.6 hPa | 0 mm | - | 141 W/m² | - |
| 1778019089 | 18.89° C | 66% | 1009.8 hPa | 0 mm | - | 156 W/m² | - |
| 1778018787 | 18.89° C | 66% | 1009.4 hPa | 0 mm | - | 162 W/m² | - |
| 1778018484 | 18.89° C | 66% | 1009.4 hPa | 0 mm | - | 183 W/m² | - |
| 1778018181 | 18.89° C | 65% | 1009.6 hPa | 0 mm | - | 200 W/m² | - |
| 1778017879 | 19.44° C | 65% | 1009.7 hPa | 0 mm | - | 202 W/m² | - |
| 1778017577 | 19.44° C | 64% | 1009.5 hPa | 0 mm | - | 212 W/m² | - |
| 1778017274 | 19.44° C | 65% | 1009.6 hPa | 0 mm | - | 234 W/m² | - |
| 1778016972 | 19.44° C | 65% | 1009.3 hPa | 0 mm | - | 252 W/m² | - |
| 1778016668 | 19.44° C | 64% | 1009.5 hPa | 0 mm | - | 265 W/m² | - |
| 1778016364 | 19.44° C | 65% | 1009.3 hPa | 0 mm | - | 248 W/m² | - |
| 1778016062 | 19.44° C | 65% | 1009.3 hPa | 0 mm | - | 297 W/m² | - |
| 1778015759 | 19.44° C | 65% | 1009.2 hPa | 0 mm | - | 291 W/m² | - |
| 1778015456 | 19.44° C | 65% | 1009.2 hPa | 0 mm | - | 307 W/m² | - |
* Rain latest hour (hover to see other rain measurements)
** Current wind speed in m/s (hover to see current wind gust speed)